星链-5135 (STARLINK-5135 )

导读

STARLINK-5135是美国SpaceX公司星链(Starlink)星座的一颗互联网通信卫星,于2022年10月5日由猎鹰9号火箭发射升空,属于星链Group 4批次卫星。该卫星运行在高度约550公里的近地轨道,重量约297千克,整体设计为盒体加展开天线构型,翼展达9米,配备相控阵天线与霍尔推进系统。作为星链巨型低轨星座组成部分,它承担为全球提供高速低延迟宽带互联网接入服务,尤其面向偏远地区、移动场景的网络覆盖,目前已在轨正常运行,和其他星链卫星共同构建全球无缝卫星通信网络。

Basic Information
目录编号:
54005
目录名称:
STARLINK-5135
国际标识:
2022-125AT
轨道中心:
EARTH
卫星名称:
星链-5135
卫星全名:
星链-5135 (STARLINK-5135 )
卫星状态:
在轨 (已飞行1438 天)
发射日期:
2022-10-05 UTC
国别 :
美国 (US)
星等 :
--
This satellite is enrolled in the Space Conjunction Data Service (SCDS) and the current flight risk assessment level is: No High Risk
Orbit Information
数据来源 国际轨道数据 AOE轨道数据
星历时间 2026-09-12T14:27:42+0800
7小时前
查看轨道信息
2026-09-05T22:00:00+0800
6天前
查看轨道信息
半长轴 6917.912km 6917.893km
偏心率 0.0001221 0.0001953
轨道倾角 53.159° 53.158°
近地点辐角 93.299° 75.666°
升交点赤经 95.641° 125.699°
平近点角 266.814° 308.061°
近地点 538.93km 538.404km
远地点 540.62km 541.108km
周期 95.438分钟 95.438分钟
每日圈数 15.088299 15.088361
Detailed Information
固有亮度:
5
最大亮度:
2.5
卫星平台:
Starlink v1.5
覆盖范围:
全球
运营商:
太空探索技术公司
运营商所在国:
美国
制造商(研发单位):
太空探索技术公司
制造商所在国:
美国
使用方式:
暂无
Satellite Introduction
星链(Starlink)计划是由太空探索技术公司(SpaceX)提出的一个巨型低轨卫星互联网星座项目,计划在2019年至2024年间在太空搭建由约1.2万颗卫星组成的“星链”网络,其中1584颗将部署在地球上空550千米处的近地轨道,并从2020年开始工作。该卫星仍在工作。
2D Orbit Map
3D Orbit Map
Orbit Altitude Analysis Chart
Orbit Inclination Analysis Chart
Orbit Comprehensive Analysis Chart
View Comprehensive Chart
Conjunction Data List
Event ID Objects TCA Miss Dist (km) Collision Risk Probability Collision Risk Index (CRI) Action
CDM_260914-022705-400505-829722
UMBRA-07 (58297)
2026-09-14T
02:27:27+0000
0.759 km
远距离
6.407291E-5 中风险 0.71
CDM_260914-131105-400505-634121
2026-09-14T
13:11:29+0000
2.399 km
极远距离
1.882138E-6 低风险 0.4
Miss Distance Evolution Trend with All Objects
Collision Probability Evolution Trend with All Objects